WMT5VE LATI-LIBD

Flight info

Callsign WMT5VE
Flight time 0h 39m
Altitude 22000
Route DIRES DCT PAPIZ/N0375F180 DCT ENOXA
Aircraft A321/M-SDE3FGHIRWY/LB1

Departure

Time 2026-05-06 17:13
Airport Tirana International Airport Mother Teresa (LATI)

Arrival

Time 2026-05-06 17:52
Airport Bari Karol Wojtyła International Airport (LIBD)
Time Latitude Longitude Altitude Speed Heading
2026-05-06 17:00 41.41951 19.71511 132 ft 0 kts 265°
2026-05-06 17:03 41.41953 19.71536 132 ft 4 kts 262°
2026-05-06 17:04 41.41962 19.71565 132 ft 4 kts 207°
2026-05-06 17:04 41.41986 19.71570 132 ft 3 kts 174°
2026-05-06 17:04 41.41994 19.71569 132 ft 0 kts 174°
2026-05-06 17:07 41.41989 19.71569 132 ft 2 kts 174°
2026-05-06 17:07 41.41973 19.71572 132 ft 3 kts 174°
2026-05-06 17:08 41.41936 19.71576 132 ft 9 kts 174°
2026-05-06 17:08 41.41845 19.71588 132 ft 17 kts 175°
2026-05-06 17:08 41.41720 19.71604 132 ft 19 kts 174°
2026-05-06 17:08 41.41578 19.71623 132 ft 22 kts 174°
2026-05-06 17:09 41.41423 19.71643 132 ft 23 kts 174°
2026-05-06 17:09 41.41263 19.71664 132 ft 24 kts 174°
2026-05-06 17:09 41.41096 19.71686 132 ft 24 kts 174°
2026-05-06 17:09 41.40924 19.71711 132 ft 25 kts 172°
2026-05-06 17:10 41.40749 19.71752 132 ft 26 kts 172°
2026-05-06 17:10 41.40568 19.71776 132 ft 26 kts 174°
2026-05-06 17:10 41.40416 19.71798 132 ft 20 kts 166°
2026-05-06 17:10 41.40299 19.71902 132 ft 21 kts 143°
2026-05-06 17:11 41.40237 19.72049 132 ft 13 kts 84°
2026-05-06 17:11 41.40239 19.72077 132 ft 0 kts 83°
2026-05-06 17:11 41.40240 19.72084 132 ft 2 kts 83°
2026-05-06 17:11 41.40243 19.72124 132 ft 6 kts 83°
2026-05-06 17:12 41.40251 19.72195 132 ft 10 kts 78°
2026-05-06 17:12 41.40307 19.72212 132 ft 10 kts 350°
2026-05-06 17:12 41.40327 19.72209 132 ft 6 kts 353°
2026-05-06 17:12 41.40463 19.72191 131 ft 56 kts 354°
2026-05-06 17:13 41.41100 19.72106 127 ft 125 kts 354°
2026-05-06 17:13 41.42132 19.71967 307 ft 160 kts 354°
2026-05-06 17:13 41.43218 19.71828 1086 ft 156 kts 353°
2026-05-06 17:13 41.44339 19.71678 1558 ft 171 kts 352°
2026-05-06 17:14 41.45602 19.71479 1848 ft 194 kts 351°
2026-05-06 17:14 41.47018 19.71266 2144 ft 216 kts 353°
2026-05-06 17:14 41.48595 19.71062 2392 ft 240 kts 354°
2026-05-06 17:14 41.50336 19.70847 2810 ft 260 kts 355°
2026-05-06 17:15 41.52175 19.70620 3486 ft 269 kts 354°
2026-05-06 17:15 41.54070 19.70380 4237 ft 276 kts 354°
2026-05-06 17:15 41.56001 19.70126 4992 ft 282 kts 353°
2026-05-06 17:15 41.57965 19.69866 5792 ft 285 kts 353°
2026-05-06 17:16 41.59939 19.69599 6645 ft 285 kts 351°
2026-05-06 17:16 41.61799 19.68788 7392 ft 282 kts 323°
2026-05-06 17:16 41.63111 19.66900 8151 ft 277 kts 295°
2026-05-06 17:16 41.63640 19.64492 8913 ft 275 kts 271°
2026-05-06 17:17 41.63334 19.61988 9683 ft 276 kts 247°
2026-05-06 17:17 41.62222 19.59899 10383 ft 281 kts 221°
2026-05-06 17:17 41.60484 19.58675 11041 ft 289 kts 195°
2026-05-06 17:17 41.58438 19.58525 11505 ft 305 kts 180°
2026-05-06 17:18 41.56234 19.58675 11666 ft 329 kts 178°
2026-05-06 17:18 41.53875 19.58886 11812 ft 351 kts 178°
2026-05-06 17:18 41.51390 19.59124 12215 ft 362 kts 178°
2026-05-06 17:18 41.48862 19.59361 12836 ft 367 kts 178°
2026-05-06 17:19 41.46298 19.59590 13529 ft 370 kts 178°
2026-05-06 17:19 41.43714 19.59810 14165 ft 374 kts 178°
2026-05-06 17:19 41.41105 19.60022 14767 ft 377 kts 179°
2026-05-06 17:19 41.38475 19.60229 15366 ft 381 kts 179°
2026-05-06 17:20 41.35818 19.60435 15980 ft 384 kts 179°
2026-05-06 17:20 41.33138 19.60602 16583 ft 387 kts 184°
2026-05-06 17:20 41.30473 19.60151 17136 ft 386 kts 197°
2026-05-06 17:20 41.27972 19.58875 17724 ft 386 kts 211°
2026-05-06 17:21 41.25770 19.56840 18303 ft 385 kts 224°
2026-05-06 17:21 41.23994 19.54183 18823 ft 386 kts 236°
2026-05-06 17:21 41.22488 19.51271 19350 ft 388 kts 237°
2026-05-06 17:21 41.20956 19.48311 19873 ft 390 kts 237°
2026-05-06 17:22 41.19408 19.45334 20402 ft 393 kts 237°
2026-05-06 17:22 41.17849 19.42344 20913 ft 395 kts 237°
2026-05-06 17:22 41.16280 19.39333 21401 ft 398 kts 237°
2026-05-06 17:22 41.14704 19.36304 21872 ft 400 kts 237°
2026-05-06 17:23 41.13119 19.33261 22035 ft 402 kts 237°
2026-05-06 17:23 41.11507 19.30170 22068 ft 412 kts 237°
2026-05-06 17:23 41.09869 19.27037 22071 ft 415 kts 237°
2026-05-06 17:23 41.08220 19.23898 22068 ft 415 kts 237°
2026-05-06 17:24 41.06567 19.20757 22061 ft 415 kts 237°
2026-05-06 17:24 41.04758 19.17762 22062 ft 417 kts 230°
2026-05-06 17:24 41.02799 19.14921 22065 ft 417 kts 230°
2026-05-06 17:24 41.00842 19.12085 22063 ft 417 kts 230°
2026-05-06 17:25 40.98882 19.09246 22053 ft 417 kts 230°
2026-05-06 17:25 40.96927 19.06413 22065 ft 417 kts 230°
2026-05-06 17:25 40.94972 19.03583 22066 ft 417 kts 230°
2026-05-06 17:25 40.93126 19.00637 22056 ft 414 kts 238°
2026-05-06 17:26 40.91789 18.97277 22054 ft 412 kts 250°
2026-05-06 17:26 40.91047 18.93632 22051 ft 411 kts 262°
2026-05-06 17:26 40.90922 18.89864 22053 ft 411 kts 274°
2026-05-06 17:26 40.91419 18.86142 22053 ft 412 kts 285°
2026-05-06 17:27 40.92307 18.82525 22045 ft 413 kts 287°
2026-05-06 17:27 40.93189 18.78964 22048 ft 413 kts 287°
2026-05-06 17:27 40.94093 18.75304 22053 ft 413 kts 286°
2026-05-06 17:27 40.94969 18.71738 22048 ft 413 kts 286°
2026-05-06 17:28 40.95867 18.68069 22061 ft 414 kts 286°
2026-05-06 17:28 40.96739 18.64497 22046 ft 414 kts 286°
2026-05-06 17:28 40.97621 18.60872 22047 ft 413 kts 286°
2026-05-06 17:28 40.98502 18.57253 22054 ft 413 kts 286°
2026-05-06 17:29 40.99386 18.53629 22047 ft 413 kts 286°
2026-05-06 17:29 41.00272 18.50003 22042 ft 413 kts 286°
2026-05-06 17:29 41.01156 18.46385 22056 ft 413 kts 286°
2026-05-06 17:29 41.02038 18.42762 22045 ft 413 kts 286°
2026-05-06 17:30 41.02916 18.39134 22042 ft 413 kts 286°
2026-05-06 17:30 41.03792 18.35503 22047 ft 413 kts 286°
2026-05-06 17:30 41.04665 18.31875 22045 ft 413 kts 286°
2026-05-06 17:30 41.05538 18.28250 22038 ft 413 kts 286°
2026-05-06 17:31 41.06414 18.24618 22040 ft 413 kts 286°
2026-05-06 17:31 41.07289 18.20986 22039 ft 413 kts 286°
2026-05-06 17:31 41.08160 18.17361 22036 ft 413 kts 286°
2026-05-06 17:31 41.09033 18.13731 22036 ft 413 kts 286°
2026-05-06 17:32 41.09902 18.10103 22029 ft 413 kts 286°
2026-05-06 17:32 41.10767 18.06473 22028 ft 413 kts 286°
2026-05-06 17:32 41.11633 18.02844 22030 ft 413 kts 286°
2026-05-06 17:32 41.12500 17.99211 22026 ft 413 kts 286°
2026-05-06 17:33 41.13364 17.95583 22026 ft 413 kts 285°
2026-05-06 17:33 41.14228 17.91952 22024 ft 413 kts 285°
2026-05-06 17:33 41.15089 17.88322 22022 ft 412 kts 285°
2026-05-06 17:33 41.15946 17.84687 22011 ft 413 kts 285°
2026-05-06 17:34 41.16803 17.81046 22011 ft 413 kts 285°
2026-05-06 17:34 41.17658 17.77411 22005 ft 413 kts 285°
2026-05-06 17:34 41.18473 17.73767 22002 ft 411 kts 281°
2026-05-06 17:34 41.18815 17.70057 21692 ft 400 kts 269°
2026-05-06 17:35 41.18550 17.66424 21118 ft 393 kts 257°
2026-05-06 17:35 41.17708 17.62988 20527 ft 389 kts 246°
2026-05-06 17:35 41.16370 17.59887 19961 ft 387 kts 236°
2026-05-06 17:36 41.13247 17.54123 18872 ft 383 kts 236°
2026-05-06 17:36 41.11703 17.51254 18340 ft 380 kts 236°
2026-05-06 17:36 41.10192 17.48436 17744 ft 378 kts 236°
2026-05-06 17:36 41.08669 17.45604 17138 ft 376 kts 235°
2026-05-06 17:37 41.07151 17.42792 16555 ft 373 kts 235°
2026-05-06 17:37 41.05810 17.39879 16109 ft 366 kts 245°
2026-05-06 17:37 41.04900 17.36794 15868 ft 354 kts 250°
2026-05-06 17:37 41.04067 17.33782 15619 ft 343 kts 249°
2026-05-06 17:38 41.03254 17.30859 15378 ft 332 kts 249°
2026-05-06 17:38 41.02463 17.28031 15134 ft 323 kts 249°
2026-05-06 17:38 41.01692 17.25280 14894 ft 314 kts 250°
2026-05-06 17:38 41.01292 17.22499 14649 ft 307 kts 273°
2026-05-06 17:39 41.01964 17.19864 14401 ft 305 kts 303°
2026-05-06 17:39 41.03563 17.18047 14173 ft 306 kts 330°
2026-05-06 17:39 41.05511 17.16939 13945 ft 302 kts 336°
2026-05-06 17:39 41.07485 17.16026 13689 ft 299 kts 342°
2026-05-06 17:40 41.09543 17.15967 13416 ft 299 kts 13°
2026-05-06 17:40 41.11362 17.17234 13163 ft 296 kts 43°
2026-05-06 17:40 41.12507 17.19443 12907 ft 289 kts 70°
2026-05-06 17:40 41.13214 17.21927 12634 ft 286 kts 71°
2026-05-06 17:41 41.13898 17.24404 12253 ft 287 kts 71°
2026-05-06 17:41 41.14579 17.26880 11977 ft 282 kts 71°
2026-05-06 17:41 41.15257 17.29337 11464 ft 285 kts 71°
2026-05-06 17:41 41.16067 17.31704 11117 ft 281 kts 54°
2026-05-06 17:42 41.17521 17.33341 10652 ft 280 kts 22°
2026-05-06 17:42 41.19391 17.33808 10228 ft 274 kts 352°
2026-05-06 17:42 41.21189 17.33130 9869 ft 267 kts 336°
2026-05-06 17:42 41.22939 17.32263 9378 ft 267 kts 337°
2026-05-06 17:43 41.24677 17.31414 8929 ft 267 kts 336°
2026-05-06 17:43 41.26197 17.30093 8463 ft 259 kts 306°
2026-05-06 17:43 41.26918 17.27994 8083 ft 247 kts 274°
2026-05-06 17:43 41.26719 17.25799 7733 ft 237 kts 249°
2026-05-06 17:44 41.26154 17.23754 7390 ft 234 kts 248°
2026-05-06 17:44 41.25592 17.21736 7050 ft 231 kts 248°
2026-05-06 17:44 41.25037 17.19746 6716 ft 228 kts 248°
2026-05-06 17:44 41.24489 17.17781 6407 ft 223 kts 248°
2026-05-06 17:45 41.23965 17.15902 6116 ft 210 kts 247°
2026-05-06 17:45 41.23471 17.14131 5833 ft 198 kts 248°
2026-05-06 17:45 41.23006 17.12465 5579 ft 184 kts 247°
2026-05-06 17:45 41.22586 17.10952 5340 ft 164 kts 245°
2026-05-06 17:46 41.22199 17.09564 5121 ft 162 kts 245°
2026-05-06 17:46 41.21799 17.08146 4898 ft 165 kts 245°
2026-05-06 17:46 41.21401 17.06717 4667 ft 166 kts 246°
2026-05-06 17:46 41.21046 17.05263 4446 ft 166 kts 248°
2026-05-06 17:47 41.20703 17.03794 4221 ft 167 kts 250°
2026-05-06 17:47 41.20360 17.02321 3994 ft 167 kts 249°
2026-05-06 17:47 41.20022 17.00872 3773 ft 166 kts 249°
2026-05-06 17:47 41.19679 16.99405 3542 ft 167 kts 249°
2026-05-06 17:48 41.19333 16.97930 3331 ft 167 kts 249°
2026-05-06 17:48 41.18987 16.96458 3096 ft 167 kts 249°
2026-05-06 17:48 41.18640 16.94985 2867 ft 167 kts 249°
2026-05-06 17:48 41.18294 16.93518 2646 ft 166 kts 250°
2026-05-06 17:49 41.17962 16.92101 2417 ft 153 kts 248°
2026-05-06 17:49 41.17660 16.90780 2204 ft 147 kts 254°
2026-05-06 17:49 41.17535 16.89439 2032 ft 146 kts 260°
2026-05-06 17:49 41.17392 16.88274 1822 ft 144 kts 249°
2026-05-06 17:50 41.17074 16.87031 1622 ft 141 kts 244°
2026-05-06 17:50 41.16706 16.85834 1434 ft 138 kts 241°
2026-05-06 17:50 41.16324 16.84676 1260 ft 136 kts 240°
2026-05-06 17:50 41.15956 16.83515 1087 ft 138 kts 244°
2026-05-06 17:51 41.15658 16.82275 880 ft 143 kts 245°
2026-05-06 17:51 41.15316 16.81047 809 ft 142 kts 240°
2026-05-06 17:51 41.14944 16.79870 589 ft 138 kts 242°
2026-05-06 17:51 41.14600 16.78666 391 ft 140 kts 244°
2026-05-06 17:52 41.14255 16.77474 199 ft 138 kts 245°
2026-05-06 17:52 41.13940 16.76372 149 ft 108 kts 249°
2026-05-06 17:52 41.13738 16.75655 152 ft 58 kts 249°
2026-05-06 17:52 41.13634 16.75291 151 ft 38 kts 249°
2026-05-06 17:53 41.13542 16.74965 148 ft 37 kts 250°
2026-05-06 17:53 41.13457 16.74740 148 ft 19 kts 200°
2026-05-06 17:53 41.13392 16.74777 154 ft 13 kts 126°
2026-05-06 17:53 41.13383 16.74797 155 ft 1 kts 123°
2026-05-06 17:54 41.13382 16.74798 156 ft 0 kts 123°
2026-05-06 17:54 41.13379 16.74804 156 ft 3 kts 123°
2026-05-06 17:54 41.13352 16.74866 157 ft 12 kts 117°
2026-05-06 17:54 41.13369 16.75021 158 ft 24 kts 69°
2026-05-06 17:55 41.13433 16.75247 158 ft 28 kts 69°
2026-05-06 17:55 41.13504 16.75496 158 ft 29 kts 70°
2026-05-06 17:55 41.13574 16.75741 158 ft 29 kts 69°
2026-05-06 17:55 41.13620 16.75904 158 ft 18 kts 69°
2026-05-06 17:56 41.13616 16.76045 158 ft 13 kts 134°
2026-05-06 17:56 41.13552 16.76135 159 ft 13 kts 109°
2026-05-06 17:56 41.13578 16.76254 159 ft 13 kts 69°
2026-05-06 17:56 41.13579 16.76319 159 ft 4 kts 158°
2026-05-06 17:57 41.13547 16.76334 159 ft 6 kts 159°
2026-05-06 17:57 41.13530 16.76343 159 ft 2 kts 159°
2026-05-06 17:57 41.13525 16.76345 159 ft 0 kts 159°